Вернуться в каталог

STARLINK-11081

АктивенСвязьVLEO
NORAD 60405·PAYLOAD·🇺🇸 United States

Запущен Aug 10, 2024 с Cape Canaveral Space Force Station

Loading…

Ближайшие Пролёты (ближайшие 24 часа)

TLE

СвежийSource: CelesTrak SupGP

Эпоха: Sep 14, 2026, 22:18 UTC

1 60405C 24141H   26257.92965278  .00059381  00000+0  48887-3 0  2577
2 60405  53.1578 233.6137 0001369  90.5943 207.4052 15.69692476    16

Отслеживайте STARLINK-11081 в реальном времени с AllMySat

Download on the App Store